Year,Month,Day,Hour,Minute,Value (Times are PST for temperature in C)
2007,07,10,00,00,21.60
2007,07,10,00,01,21.60
2007,07,10,00,02,21.40
2007,07,10,00,03,21.40
2007,07,10,00,04,21.30
2007,07,10,00,05,21.30
2007,07,10,00,06,21.20
2007,07,10,00,07,21.20
2007,07,10,00,08,21.10
2007,07,10,00,09,21.10
2007,07,10,00,10,21.00
2007,07,10,00,11,21.00
2007,07,10,00,12,20.90
2007,07,10,00,13,20.80
2007,07,10,00,14,20.80
2007,07,10,00,15,20.70
2007,07,10,00,16,20.70
2007,07,10,00,17,20.70
2007,07,10,00,18,20.60
2007,07,10,00,19,20.60
2007,07,10,00,20,20.50
2007,07,10,00,21,20.50
2007,07,10,00,22,20.40
2007,07,10,00,23,20.30
2007,07,10,00,24,20.30
2007,07,10,00,25,20.20
2007,07,10,00,26,20.20
2007,07,10,00,27,20.20
2007,07,10,00,28,20.10
2007,07,10,00,29,20.10
2007,07,10,00,30,20.10
2007,07,10,00,31,20.00
2007,07,10,00,32,19.90
2007,07,10,00,33,19.90
2007,07,10,00,34,19.90
2007,07,10,00,35,19.90
2007,07,10,00,36,19.80
2007,07,10,00,37,19.80
2007,07,10,00,38,19.80
2007,07,10,00,39,19.80
2007,07,10,00,40,19.80
2007,07,10,00,41,19.90
2007,07,10,00,42,19.90
2007,07,10,00,43,19.90
2007,07,10,00,44,19.80
2007,07,10,00,45,19.80
2007,07,10,00,46,19.70
2007,07,10,00,47,19.70
2007,07,10,00,48,19.70
2007,07,10,00,49,19.60
2007,07,10,00,50,19.60
2007,07,10,00,51,19.60
2007,07,10,00,52,19.50
2007,07,10,00,53,19.50
2007,07,10,00,54,19.40
2007,07,10,00,55,19.40
2007,07,10,00,56,19.40
2007,07,10,00,57,19.30
2007,07,10,00,58,19.30
2007,07,10,00,59,19.30
2007,07,10,01,00,19.20
2007,07,10,01,01,19.20
2007,07,10,01,02,19.20
2007,07,10,01,03,19.10
2007,07,10,01,04,19.10
2007,07,10,01,05,19.10
2007,07,10,01,06,19.10
2007,07,10,01,07,19.10
2007,07,10,01,08,19.10
2007,07,10,01,09,19.10
2007,07,10,01,10,18.90
2007,07,10,01,11,18.90
2007,07,10,01,12,18.90
2007,07,10,01,13,18.90
2007,07,10,01,14,18.90
2007,07,10,01,15,18.90
2007,07,10,01,16,18.90
2007,07,10,01,17,18.80
2007,07,10,01,18,18.80
2007,07,10,01,19,18.70
2007,07,10,01,20,18.60
2007,07,10,01,21,18.60
2007,07,10,01,22,18.50
2007,07,10,01,23,18.50
2007,07,10,01,24,18.40
2007,07,10,01,25,18.40
2007,07,10,01,26,18.40
2007,07,10,01,27,18.30
2007,07,10,01,28,18.30
2007,07,10,01,29,18.30
2007,07,10,01,30,18.40
2007,07,10,01,31,18.40
2007,07,10,01,32,18.40
2007,07,10,01,33,18.40
2007,07,10,01,34,18.50
2007,07,10,01,35,18.50
2007,07,10,01,36,18.50
2007,07,10,01,37,18.60
2007,07,10,01,38,18.60
2007,07,10,01,39,18.60
2007,07,10,01,40,18.70
2007,07,10,01,41,18.70
2007,07,10,01,42,18.80
2007,07,10,01,43,18.90
2007,07,10,01,44,18.90
2007,07,10,01,45,18.90
2007,07,10,01,46,19.00
2007,07,10,01,47,19.10
2007,07,10,01,48,19.10
2007,07,10,01,49,19.10
2007,07,10,01,50,19.10
2007,07,10,01,51,19.10
2007,07,10,01,52,19.10
2007,07,10,01,53,19.10
2007,07,10,01,54,19.10
2007,07,10,01,55,19.10
2007,07,10,01,56,19.10
2007,07,10,01,57,19.10
2007,07,10,01,58,19.10
2007,07,10,01,59,19.10
2007,07,10,02,00,19.10
2007,07,10,02,01,19.10
2007,07,10,02,02,19.10
2007,07,10,02,03,19.10
2007,07,10,02,04,19.00
2007,07,10,02,05,18.90
2007,07,10,02,06,18.90
2007,07,10,02,07,18.90
2007,07,10,02,08,18.90
2007,07,10,02,09,18.90
2007,07,10,02,10,18.90
2007,07,10,02,11,18.80
2007,07,10,02,12,18.80
2007,07,10,02,13,18.80
2007,07,10,02,14,18.80
2007,07,10,02,15,18.80
2007,07,10,02,16,18.70
2007,07,10,02,17,18.70
2007,07,10,02,18,18.70
2007,07,10,02,19,18.60
2007,07,10,02,20,18.60
2007,07,10,02,21,18.60
2007,07,10,02,22,18.60
2007,07,10,02,23,18.50
2007,07,10,02,24,18.50
2007,07,10,02,25,18.50
2007,07,10,02,26,18.50
2007,07,10,02,27,18.50
2007,07,10,02,28,18.50
2007,07,10,02,29,18.50
2007,07,10,02,30,18.40
2007,07,10,02,31,18.40
2007,07,10,02,32,18.40
2007,07,10,02,33,18.40
2007,07,10,02,34,18.30
2007,07,10,02,35,18.30
2007,07,10,02,36,18.30
2007,07,10,02,37,18.20
2007,07,10,02,38,18.20
2007,07,10,02,39,18.10
2007,07,10,02,40,18.00
2007,07,10,02,41,17.90
2007,07,10,02,42,17.80
2007,07,10,02,43,17.70
2007,07,10,02,44,17.60
2007,07,10,02,45,17.50
2007,07,10,02,46,17.40
2007,07,10,02,47,17.30
2007,07,10,02,48,17.20
2007,07,10,02,49,17.20
2007,07,10,02,50,17.10
2007,07,10,02,51,17.00
2007,07,10,02,52,17.00
2007,07,10,02,53,16.90
2007,07,10,02,54,16.90
2007,07,10,02,55,16.90
2007,07,10,02,56,16.80
2007,07,10,02,57,16.80
2007,07,10,02,58,16.70
2007,07,10,02,59,16.70
2007,07,10,03,00,16.70
2007,07,10,03,01,16.70
2007,07,10,03,02,16.70
2007,07,10,03,03,16.70
2007,07,10,03,04,16.60
2007,07,10,03,05,16.60
2007,07,10,03,06,16.60
2007,07,10,03,07,16.60
2007,07,10,03,08,16.50
2007,07,10,03,09,16.40
2007,07,10,03,10,16.40
2007,07,10,03,11,16.40
2007,07,10,03,12,16.40
2007,07,10,03,13,16.40
2007,07,10,03,14,16.40
2007,07,10,03,15,16.40
2007,07,10,03,16,16.40
2007,07,10,03,17,16.40
2007,07,10,03,18,16.40
2007,07,10,03,19,16.40
2007,07,10,03,20,16.40
2007,07,10,03,21,16.40
2007,07,10,03,22,16.30
2007,07,10,03,23,16.30
2007,07,10,03,24,16.30
2007,07,10,03,25,16.20
2007,07,10,03,26,16.20
2007,07,10,03,27,16.20
2007,07,10,03,28,16.20
2007,07,10,03,29,16.20
2007,07,10,03,30,16.20
2007,07,10,03,31,16.20
2007,07,10,03,32,16.20
2007,07,10,03,33,16.20
2007,07,10,03,34,16.20
2007,07,10,03,35,16.20
2007,07,10,03,36,16.10
2007,07,10,03,37,16.10
2007,07,10,03,38,16.10
2007,07,10,03,39,16.10
2007,07,10,03,40,16.10
2007,07,10,03,41,16.10
2007,07,10,03,42,16.10
2007,07,10,03,43,16.10
2007,07,10,03,44,16.10
2007,07,10,03,45,16.10
2007,07,10,03,46,16.10
2007,07,10,03,47,16.10
2007,07,10,03,48,16.20
2007,07,10,03,49,16.20
2007,07,10,03,50,16.20
2007,07,10,03,51,16.20
2007,07,10,03,52,16.20
2007,07,10,03,53,16.40
2007,07,10,03,54,16.40
2007,07,10,03,55,16.40
2007,07,10,03,56,16.40
2007,07,10,03,57,16.40
2007,07,10,03,58,16.40
2007,07,10,03,59,16.60
2007,07,10,04,00,16.60
2007,07,10,04,01,16.60
2007,07,10,04,02,16.50
2007,07,10,04,03,16.40
2007,07,10,04,04,16.60
2007,07,10,04,05,16.60
2007,07,10,04,06,16.50
2007,07,10,04,07,16.50
2007,07,10,04,08,16.60
2007,07,10,04,09,16.70
2007,07,10,04,10,16.80
2007,07,10,04,11,16.80
2007,07,10,04,12,16.90
2007,07,10,04,13,17.00
2007,07,10,04,14,17.10
2007,07,10,04,15,17.30
2007,07,10,04,16,17.40
2007,07,10,04,17,17.40
2007,07,10,04,18,17.40
2007,07,10,04,19,17.40
2007,07,10,04,20,17.40
2007,07,10,04,21,17.40
2007,07,10,04,22,17.40
2007,07,10,04,23,17.40
2007,07,10,04,24,17.40
2007,07,10,04,25,17.40
2007,07,10,04,26,17.40
2007,07,10,04,27,17.30
2007,07,10,04,28,17.30
2007,07,10,04,29,17.30
2007,07,10,04,30,17.30
2007,07,10,04,31,17.30
2007,07,10,04,32,17.20
2007,07,10,04,33,17.10
2007,07,10,04,34,17.00
2007,07,10,04,35,16.90
2007,07,10,04,36,16.80
2007,07,10,04,37,16.70
2007,07,10,04,38,16.70
2007,07,10,04,39,16.60
2007,07,10,04,40,16.60
2007,07,10,04,41,16.50
2007,07,10,04,42,16.40
2007,07,10,04,43,16.50
2007,07,10,04,44,16.60
2007,07,10,04,45,16.70
2007,07,10,04,46,16.70
2007,07,10,04,47,16.80
2007,07,10,04,48,16.80
2007,07,10,04,49,16.80
2007,07,10,04,50,16.80
2007,07,10,04,51,16.80
2007,07,10,04,52,16.70
2007,07,10,04,53,16.70
2007,07,10,04,54,16.60
2007,07,10,04,55,16.50
2007,07,10,04,56,16.40
2007,07,10,04,57,16.40
2007,07,10,04,58,16.30
2007,07,10,04,59,16.20
2007,07,10,05,00,16.10
2007,07,10,05,01,16.10
2007,07,10,05,02,16.10
2007,07,10,05,03,16.10
2007,07,10,05,04,15.90
2007,07,10,05,05,15.90
2007,07,10,05,06,15.80
2007,07,10,05,07,15.80
2007,07,10,05,08,15.80
2007,07,10,05,09,15.80
2007,07,10,05,10,15.80
2007,07,10,05,11,15.80
2007,07,10,05,12,15.90
2007,07,10,05,13,15.90
2007,07,10,05,14,16.10
2007,07,10,05,15,16.10
2007,07,10,05,16,16.10
2007,07,10,05,17,16.10
2007,07,10,05,18,16.20
2007,07,10,05,19,16.20
2007,07,10,05,20,16.20
2007,07,10,05,21,16.30
2007,07,10,05,22,16.30
2007,07,10,05,23,16.30
2007,07,10,05,24,16.30
2007,07,10,05,25,16.40
2007,07,10,05,26,16.40
2007,07,10,05,27,16.40
2007,07,10,05,28,16.40
2007,07,10,05,29,16.40
2007,07,10,05,30,16.40
2007,07,10,05,31,16.40
2007,07,10,05,32,16.40
2007,07,10,05,33,16.40
2007,07,10,05,34,16.40
2007,07,10,05,35,16.40
2007,07,10,05,36,16.40
2007,07,10,05,37,16.40
2007,07,10,05,38,16.30
2007,07,10,05,39,16.30
2007,07,10,05,40,16.30
2007,07,10,05,41,16.30
2007,07,10,05,42,16.40
2007,07,10,05,43,16.40
2007,07,10,05,44,16.40
2007,07,10,05,45,16.40
2007,07,10,05,46,16.40
2007,07,10,05,47,16.40
2007,07,10,05,48,16.40
2007,07,10,05,49,16.40
2007,07,10,05,50,16.40
2007,07,10,05,51,16.40
2007,07,10,05,52,16.40
2007,07,10,05,53,16.40
2007,07,10,05,54,16.40
2007,07,10,05,55,16.40
2007,07,10,05,56,16.40
2007,07,10,05,57,16.40
2007,07,10,05,58,16.40
2007,07,10,05,59,16.40
2007,07,10,06,00,16.40
2007,07,10,06,01,16.40
2007,07,10,06,02,16.40
2007,07,10,06,03,16.50
2007,07,10,06,04,16.60
2007,07,10,06,05,16.60
2007,07,10,06,06,16.60
2007,07,10,06,07,16.60
2007,07,10,06,08,16.60
2007,07,10,06,09,16.60
2007,07,10,06,10,16.50
2007,07,10,06,11,16.40
2007,07,10,06,12,16.40
2007,07,10,06,13,16.40
2007,07,10,06,14,16.40
2007,07,10,06,15,16.40
2007,07,10,06,16,16.40
2007,07,10,06,17,16.40
2007,07,10,06,18,16.60
2007,07,10,06,19,16.60
2007,07,10,06,20,16.60
2007,07,10,06,21,16.70
2007,07,10,06,22,16.70
2007,07,10,06,23,16.80
2007,07,10,06,24,16.80
2007,07,10,06,25,16.90
2007,07,10,06,26,16.90
2007,07,10,06,27,17.00
2007,07,10,06,28,17.00
2007,07,10,06,29,17.10
2007,07,10,06,30,17.20
2007,07,10,06,31,17.30
2007,07,10,06,32,17.30
2007,07,10,06,33,17.40
2007,07,10,06,34,17.50
2007,07,10,06,35,17.60
2007,07,10,06,36,17.70
2007,07,10,06,37,17.80
2007,07,10,06,38,17.90
2007,07,10,06,39,17.90
2007,07,10,06,40,18.00
2007,07,10,06,41,18.10
2007,07,10,06,42,18.20
2007,07,10,06,43,18.20
2007,07,10,06,44,18.20
2007,07,10,06,45,18.20
2007,07,10,06,46,18.30
2007,07,10,06,47,18.30
2007,07,10,06,48,18.30
2007,07,10,06,49,18.40
2007,07,10,06,50,18.40
2007,07,10,06,51,18.50
2007,07,10,06,52,18.60
2007,07,10,06,53,18.60
2007,07,10,06,54,18.70
2007,07,10,06,55,18.70
2007,07,10,06,56,18.80
2007,07,10,06,57,18.80
2007,07,10,06,58,18.80
2007,07,10,06,59,18.80
2007,07,10,07,00,18.90
2007,07,10,07,01,18.90
2007,07,10,07,02,18.90
2007,07,10,07,03,18.90
2007,07,10,07,04,19.00
2007,07,10,07,05,19.10
2007,07,10,07,06,19.10
2007,07,10,07,07,19.20
2007,07,10,07,08,19.30
2007,07,10,07,09,19.40
2007,07,10,07,10,19.40
2007,07,10,07,11,19.40
2007,07,10,07,12,19.40
2007,07,10,07,13,19.40
2007,07,10,07,14,19.40
2007,07,10,07,15,19.40
2007,07,10,07,16,19.40
2007,07,10,07,17,19.30
2007,07,10,07,18,19.30
2007,07,10,07,19,19.30
2007,07,10,07,20,19.30
2007,07,10,07,21,19.30
2007,07,10,07,22,19.40
2007,07,10,07,23,19.40
2007,07,10,07,24,19.50
2007,07,10,07,25,19.50
2007,07,10,07,26,19.60
2007,07,10,07,27,19.60
2007,07,10,07,28,19.60
2007,07,10,07,29,19.60
2007,07,10,07,30,19.60
2007,07,10,07,31,19.70
2007,07,10,07,32,19.80
2007,07,10,07,33,19.90
2007,07,10,07,34,20.00
2007,07,10,07,35,20.10
2007,07,10,07,36,20.20
2007,07,10,07,37,20.40
2007,07,10,07,38,20.50
2007,07,10,07,39,20.60
2007,07,10,07,40,20.70
2007,07,10,07,41,20.80
2007,07,10,07,42,20.90
2007,07,10,07,43,21.00
2007,07,10,07,44,21.00
2007,07,10,07,45,21.00
2007,07,10,07,46,21.00
2007,07,10,07,47,21.00
2007,07,10,07,48,21.00
2007,07,10,07,49,21.10
2007,07,10,07,50,21.10
2007,07,10,07,51,21.10
2007,07,10,07,52,21.10
2007,07,10,07,53,21.10
2007,07,10,07,54,21.10
2007,07,10,07,55,21.10
2007,07,10,07,56,21.10
2007,07,10,07,57,21.10
2007,07,10,07,58,21.10
2007,07,10,07,59,21.10
2007,07,10,08,00,21.10
2007,07,10,08,01,21.20
2007,07,10,08,02,21.20
2007,07,10,08,03,21.20
2007,07,10,08,04,21.20
2007,07,10,08,05,21.30
2007,07,10,08,06,21.30
2007,07,10,08,07,21.30
2007,07,10,08,08,21.30
2007,07,10,08,09,21.40
2007,07,10,08,10,21.40
2007,07,10,08,11,21.40
2007,07,10,08,12,21.40
2007,07,10,08,13,21.40
2007,07,10,08,14,21.40
2007,07,10,08,15,21.40
2007,07,10,08,16,21.60
2007,07,10,08,17,21.60
2007,07,10,08,18,21.60
2007,07,10,08,19,21.70
2007,07,10,08,20,21.70
2007,07,10,08,21,21.60
2007,07,10,08,22,21.60
2007,07,10,08,23,21.70
2007,07,10,08,24,21.70
2007,07,10,08,25,21.70
2007,07,10,08,26,21.80
2007,07,10,08,27,21.80
2007,07,10,08,28,21.80
2007,07,10,08,29,21.80
2007,07,10,08,30,21.80
2007,07,10,08,31,21.80
2007,07,10,08,32,21.80
2007,07,10,08,33,21.70
2007,07,10,08,34,21.70
2007,07,10,08,35,21.70
2007,07,10,08,36,21.70
2007,07,10,08,37,21.70
2007,07,10,08,38,21.80
2007,07,10,08,39,21.80
2007,07,10,08,40,21.80
2007,07,10,08,41,21.80
2007,07,10,08,42,21.80
2007,07,10,08,43,21.80
2007,07,10,08,44,21.90
2007,07,10,08,45,21.90
2007,07,10,08,46,21.90
2007,07,10,08,47,21.90
2007,07,10,08,48,21.80
2007,07,10,08,49,21.70
2007,07,10,08,50,21.70
2007,07,10,08,51,21.60
2007,07,10,08,52,21.60
2007,07,10,08,53,21.60
2007,07,10,08,54,21.70
2007,07,10,08,55,21.70
2007,07,10,08,56,21.80
2007,07,10,08,57,21.90
2007,07,10,08,58,22.00
2007,07,10,08,59,22.00
2007,07,10,09,00,22.00
2007,07,10,09,01,22.10
2007,07,10,09,02,22.10
2007,07,10,09,03,22.20
2007,07,10,09,04,22.20
2007,07,10,09,05,22.30
2007,07,10,09,06,22.30
2007,07,10,09,07,22.30
2007,07,10,09,08,22.40
2007,07,10,09,09,22.40
2007,07,10,09,10,22.40
2007,07,10,09,11,22.40
2007,07,10,09,12,22.50
2007,07,10,09,13,22.60
2007,07,10,09,14,22.70
2007,07,10,09,15,22.70
2007,07,10,09,16,22.90
2007,07,10,09,17,22.90
2007,07,10,09,18,22.90
2007,07,10,09,19,23.00
2007,07,10,09,20,22.90
2007,07,10,09,21,22.90
2007,07,10,09,22,22.90
2007,07,10,09,23,22.90
2007,07,10,09,24,22.90
2007,07,10,09,25,22.90
2007,07,10,09,26,22.90
2007,07,10,09,27,23.00
2007,07,10,09,28,23.10
2007,07,10,09,29,23.10
2007,07,10,09,30,23.20
2007,07,10,09,31,23.20
2007,07,10,09,32,23.10
2007,07,10,09,33,23.10
2007,07,10,09,34,23.10
2007,07,10,09,35,23.20
2007,07,10,09,36,23.10
2007,07,10,09,37,23.10
2007,07,10,09,38,23.20
2007,07,10,09,39,23.20
2007,07,10,09,40,23.30
2007,07,10,09,41,23.30
2007,07,10,09,42,23.30
2007,07,10,09,43,23.30
2007,07,10,09,44,23.30
2007,07,10,09,45,23.30
2007,07,10,09,46,23.30
2007,07,10,09,47,23.30
2007,07,10,09,48,23.30
2007,07,10,09,49,23.30
2007,07,10,09,50,23.30
2007,07,10,09,51,23.30
2007,07,10,09,52,23.30
2007,07,10,09,53,23.20
2007,07,10,09,54,23.20
2007,07,10,09,55,23.30
2007,07,10,09,56,23.30
2007,07,10,09,57,23.30
2007,07,10,09,58,23.30
2007,07,10,09,59,23.30
2007,07,10,10,00,23.30
2007,07,10,10,01,23.30
2007,07,10,10,02,23.40
2007,07,10,10,03,23.50
2007,07,10,10,04,23.60
2007,07,10,10,05,23.50
2007,07,10,10,06,23.30
2007,07,10,10,07,23.30
2007,07,10,10,08,23.30
2007,07,10,10,09,23.40
2007,07,10,10,10,23.50
2007,07,10,10,11,23.60
2007,07,10,10,12,23.60
2007,07,10,10,13,23.60
2007,07,10,10,14,23.60
2007,07,10,10,15,23.60
2007,07,10,10,16,23.60
2007,07,10,10,17,23.60
2007,07,10,10,18,23.70
2007,07,10,10,19,23.60
2007,07,10,10,20,23.60
2007,07,10,10,21,23.60
2007,07,10,10,22,23.60
2007,07,10,10,23,23.60
2007,07,10,10,24,23.60
2007,07,10,10,25,23.50
2007,07,10,10,26,23.30
2007,07,10,10,27,23.30
2007,07,10,10,28,23.30
2007,07,10,10,29,23.40
2007,07,10,10,30,23.40
2007,07,10,10,31,23.40
2007,07,10,10,32,23.60
2007,07,10,10,33,23.60
2007,07,10,10,34,23.60
2007,07,10,10,35,23.70
2007,07,10,10,36,23.80
2007,07,10,10,37,23.90
2007,07,10,10,38,23.90
2007,07,10,10,39,23.80
2007,07,10,10,40,23.70
2007,07,10,10,41,23.70
2007,07,10,10,42,23.70
2007,07,10,10,43,23.60
2007,07,10,10,44,23.50
2007,07,10,10,45,23.40
2007,07,10,10,46,23.40
2007,07,10,10,47,23.40
2007,07,10,10,48,23.40
2007,07,10,10,49,23.40
2007,07,10,10,50,23.50
2007,07,10,10,51,23.60
2007,07,10,10,52,23.60
2007,07,10,10,53,23.60
2007,07,10,10,54,23.50
2007,07,10,10,55,23.40
2007,07,10,10,56,23.30
2007,07,10,10,57,23.10
2007,07,10,10,58,22.90
2007,07,10,10,59,22.80
2007,07,10,11,00,22.80
2007,07,10,11,01,22.90
2007,07,10,11,02,22.90
2007,07,10,11,03,22.90
2007,07,10,11,04,22.90
2007,07,10,11,05,23.00
2007,07,10,11,06,23.20
2007,07,10,11,07,23.30
2007,07,10,11,08,23.30
2007,07,10,11,09,23.40
2007,07,10,11,10,23.50
2007,07,10,11,11,23.70
2007,07,10,11,12,23.70
2007,07,10,11,13,23.80
2007,07,10,11,14,23.90
2007,07,10,11,15,24.00
2007,07,10,11,16,24.10
2007,07,10,11,17,24.10
2007,07,10,11,18,24.20
2007,07,10,11,19,24.20
2007,07,10,11,20,24.20
2007,07,10,11,21,24.20
2007,07,10,11,22,24.30
2007,07,10,11,23,24.30
2007,07,10,11,24,24.30
2007,07,10,11,25,24.20
2007,07,10,11,26,24.10
2007,07,10,11,27,24.00
2007,07,10,11,28,23.90
2007,07,10,11,29,23.90
2007,07,10,11,30,23.90
2007,07,10,11,31,24.00
2007,07,10,11,32,24.10
2007,07,10,11,33,24.10
2007,07,10,11,34,24.20
2007,07,10,11,35,24.20
2007,07,10,11,36,24.30
2007,07,10,11,37,24.40
2007,07,10,11,38,24.50
2007,07,10,11,39,24.60
2007,07,10,11,40,24.70
2007,07,10,11,41,24.80
2007,07,10,11,42,24.80
2007,07,10,11,43,24.90
2007,07,10,11,44,24.80
2007,07,10,11,45,24.80
2007,07,10,11,46,24.80
2007,07,10,11,47,24.60
2007,07,10,11,48,24.60
2007,07,10,11,49,24.60
2007,07,10,11,50,24.60
2007,07,10,11,51,24.70
2007,07,10,11,52,24.80
2007,07,10,11,53,24.90
2007,07,10,11,54,24.90
2007,07,10,11,55,24.90
2007,07,10,11,56,24.80
2007,07,10,11,57,24.70
2007,07,10,11,58,24.60
2007,07,10,11,59,24.50
2007,07,10,12,00,24.40
2007,07,10,12,01,24.40
2007,07,10,12,02,24.30
2007,07,10,12,03,24.20
2007,07,10,12,04,24.20
2007,07,10,12,05,24.30
2007,07,10,12,06,24.30
2007,07,10,12,07,24.20
2007,07,10,12,08,24.10
2007,07,10,12,09,24.10
2007,07,10,12,10,24.20
2007,07,10,12,11,24.20
2007,07,10,12,12,24.20
2007,07,10,12,13,24.30
2007,07,10,12,14,24.40
2007,07,10,12,15,24.40
2007,07,10,12,16,24.50
2007,07,10,12,17,24.50
2007,07,10,12,18,24.60
2007,07,10,12,19,24.60
2007,07,10,12,20,24.60
2007,07,10,12,21,24.60
2007,07,10,12,22,24.70
2007,07,10,12,23,24.70
2007,07,10,12,24,24.80
2007,07,10,12,25,24.80
2007,07,10,12,26,24.90
2007,07,10,12,27,25.00
2007,07,10,12,28,25.10
2007,07,10,12,29,25.10
2007,07,10,12,30,25.10
2007,07,10,12,31,25.10
2007,07,10,12,32,24.90
2007,07,10,12,33,24.90
2007,07,10,12,34,24.90
2007,07,10,12,35,25.00
2007,07,10,12,36,25.10
2007,07,10,12,37,25.10
2007,07,10,12,38,25.10
2007,07,10,12,39,25.00
2007,07,10,12,40,24.90
2007,07,10,12,41,25.00
2007,07,10,12,42,24.90
2007,07,10,12,43,24.90
2007,07,10,12,44,25.00
2007,07,10,12,45,25.20
2007,07,10,12,46,25.40
2007,07,10,12,47,25.40
2007,07,10,12,48,25.50
2007,07,10,12,49,25.50
2007,07,10,12,50,25.60
2007,07,10,12,51,25.70
2007,07,10,12,52,25.80
2007,07,10,12,53,25.70
2007,07,10,12,54,25.70
2007,07,10,12,55,25.80
2007,07,10,12,56,25.80
2007,07,10,12,57,26.00
2007,07,10,12,58,26.00
2007,07,10,12,59,26.00
2007,07,10,13,00,25.80
2007,07,10,13,01,25.60
2007,07,10,13,02,25.50
2007,07,10,13,03,25.50
2007,07,10,13,04,25.60
2007,07,10,13,05,25.60
2007,07,10,13,06,25.70
2007,07,10,13,07,25.60
2007,07,10,13,08,25.50
2007,07,10,13,09,25.50
2007,07,10,13,10,25.60
2007,07,10,13,11,25.60
2007,07,10,13,12,25.60
2007,07,10,13,13,25.70
2007,07,10,13,14,25.90
2007,07,10,13,15,26.00
2007,07,10,13,16,26.10
2007,07,10,13,17,26.00
2007,07,10,13,18,26.00
2007,07,10,13,19,26.00
2007,07,10,13,20,26.10
2007,07,10,13,21,26.10
2007,07,10,13,22,26.20
2007,07,10,13,23,26.40
2007,07,10,13,24,26.50
2007,07,10,13,25,26.60
2007,07,10,13,26,26.60
2007,07,10,13,27,26.60
2007,07,10,13,28,26.60
2007,07,10,13,29,26.60
2007,07,10,13,30,26.60
2007,07,10,13,31,26.70
2007,07,10,13,32,26.80
2007,07,10,13,33,26.80
2007,07,10,13,34,26.70
2007,07,10,13,35,26.70
2007,07,10,13,36,26.60
2007,07,10,13,37,26.70
2007,07,10,13,38,26.90
2007,07,10,13,39,27.10
2007,07,10,13,40,27.30
2007,07,10,13,41,27.50
2007,07,10,13,42,27.60
2007,07,10,13,43,27.80
2007,07,10,13,44,27.90
2007,07,10,13,45,27.90
2007,07,10,13,46,27.90
2007,07,10,13,47,27.80
2007,07,10,13,48,27.80
2007,07,10,13,49,27.90
2007,07,10,13,50,28.00
2007,07,10,13,51,28.00
2007,07,10,13,52,28.10
2007,07,10,13,53,28.10
2007,07,10,13,54,28.20
2007,07,10,13,55,28.20
2007,07,10,13,56,28.20
2007,07,10,13,57,28.20
2007,07,10,13,58,28.30
2007,07,10,13,59,28.30
2007,07,10,14,00,28.40
2007,07,10,14,01,28.60
2007,07,10,14,02,28.60
2007,07,10,14,03,28.70
2007,07,10,14,04,28.70
2007,07,10,14,05,28.80
2007,07,10,14,06,28.70
2007,07,10,14,07,28.60
2007,07,10,14,08,28.30
2007,07,10,14,09,28.30
2007,07,10,14,10,28.10
2007,07,10,14,11,27.90
2007,07,10,14,12,27.80
2007,07,10,14,13,27.90
2007,07,10,14,14,28.00
2007,07,10,14,15,28.10
2007,07,10,14,16,28.10
2007,07,10,14,17,28.10
2007,07,10,14,18,28.10
2007,07,10,14,19,28.20
2007,07,10,14,20,28.20
2007,07,10,14,21,28.20
2007,07,10,14,22,28.20
2007,07,10,14,23,28.20
2007,07,10,14,24,28.20
2007,07,10,14,25,28.20
2007,07,10,14,26,28.30
2007,07,10,14,27,28.30
2007,07,10,14,28,28.20
2007,07,10,14,29,28.20
2007,07,10,14,30,28.30
2007,07,10,14,31,28.40
2007,07,10,14,32,28.50
2007,07,10,14,33,28.60
2007,07,10,14,34,28.40
2007,07,10,14,35,28.40
2007,07,10,14,36,28.40
2007,07,10,14,37,28.50
2007,07,10,14,38,28.30
2007,07,10,14,39,28.30
2007,07,10,14,40,28.40
2007,07,10,14,41,28.40
2007,07,10,14,42,28.30
2007,07,10,14,43,28.20
2007,07,10,14,44,28.10
2007,07,10,14,45,28.10
2007,07,10,14,46,28.10
2007,07,10,14,47,28.30
2007,07,10,14,48,28.50
2007,07,10,14,49,28.60
2007,07,10,14,50,28.80
2007,07,10,14,51,28.80
2007,07,10,14,52,28.80
2007,07,10,14,53,28.80
2007,07,10,14,54,28.90
2007,07,10,14,55,29.00
2007,07,10,14,56,29.10
2007,07,10,14,57,29.10
2007,07,10,14,58,28.90
2007,07,10,14,59,28.90
2007,07,10,15,00,28.90
2007,07,10,15,01,28.90
2007,07,10,15,02,28.90
2007,07,10,15,03,28.90
2007,07,10,15,04,29.00
2007,07,10,15,05,29.10
2007,07,10,15,06,29.20
2007,07,10,15,07,29.30
2007,07,10,15,08,29.30
2007,07,10,15,09,29.20
2007,07,10,15,10,29.20
2007,07,10,15,11,29.00
2007,07,10,15,12,28.90
2007,07,10,15,13,28.90
2007,07,10,15,14,28.80
2007,07,10,15,15,28.80
2007,07,10,15,16,28.70
2007,07,10,15,17,28.70
2007,07,10,15,18,28.60
2007,07,10,15,19,28.50
2007,07,10,15,20,28.50
2007,07,10,15,21,28.60
2007,07,10,15,22,28.70
2007,07,10,15,23,28.80
2007,07,10,15,24,28.90
2007,07,10,15,25,28.90
2007,07,10,15,26,28.90
2007,07,10,15,27,28.90
2007,07,10,15,28,28.90
2007,07,10,15,29,29.00
2007,07,10,15,30,29.10
2007,07,10,15,31,29.10
2007,07,10,15,32,29.20
2007,07,10,15,33,29.30
2007,07,10,15,34,29.30
2007,07,10,15,35,29.50
2007,07,10,15,36,29.60
2007,07,10,15,37,29.60
2007,07,10,15,38,29.60
2007,07,10,15,39,29.50
2007,07,10,15,40,29.50
2007,07,10,15,41,29.50
2007,07,10,15,42,29.40
2007,07,10,15,43,29.40
2007,07,10,15,44,29.50
2007,07,10,15,45,29.60
2007,07,10,15,46,29.70
2007,07,10,15,47,29.80
2007,07,10,15,48,29.80
2007,07,10,15,49,29.70
2007,07,10,15,50,29.70
2007,07,10,15,51,29.70
2007,07,10,15,52,29.70
2007,07,10,15,53,29.80
2007,07,10,15,54,29.80
2007,07,10,15,55,29.80
2007,07,10,15,56,29.90
2007,07,10,15,57,29.90
2007,07,10,15,58,30.10
2007,07,10,15,59,30.10
2007,07,10,16,00,30.20
2007,07,10,16,01,30.20
2007,07,10,16,02,30.20
2007,07,10,16,03,30.30
2007,07,10,16,04,30.30
2007,07,10,16,05,30.40
2007,07,10,16,06,30.40
2007,07,10,16,07,30.50
2007,07,10,16,08,30.60
2007,07,10,16,09,30.60
2007,07,10,16,10,30.60
2007,07,10,16,11,30.70
2007,07,10,16,12,30.70
2007,07,10,16,13,30.80
2007,07,10,16,14,30.80
2007,07,10,16,15,30.90
2007,07,10,16,16,31.00
2007,07,10,16,17,30.90
2007,07,10,16,18,30.80
2007,07,10,16,19,30.70
2007,07,10,16,20,30.60
2007,07,10,16,21,30.70
2007,07,10,16,22,30.60
2007,07,10,16,23,30.70
2007,07,10,16,24,30.70
2007,07,10,16,25,30.60
2007,07,10,16,26,30.40
2007,07,10,16,27,30.30
2007,07,10,16,28,30.20
2007,07,10,16,29,30.20
2007,07,10,16,30,30.20
2007,07,10,16,31,30.20
2007,07,10,16,32,30.20
2007,07,10,16,33,30.20
2007,07,10,16,34,30.20
2007,07,10,16,35,30.10
2007,07,10,16,36,30.10
2007,07,10,16,37,30.20
2007,07,10,16,38,30.30
2007,07,10,16,39,30.40
2007,07,10,16,40,30.50
2007,07,10,16,41,30.70
2007,07,10,16,42,30.70
2007,07,10,16,43,30.70
2007,07,10,16,44,30.80
2007,07,10,16,45,30.90
2007,07,10,16,46,30.90
2007,07,10,16,47,31.10
2007,07,10,16,48,31.10
2007,07,10,16,49,31.20
2007,07,10,16,50,31.20
2007,07,10,16,51,31.30
2007,07,10,16,52,31.30
2007,07,10,16,53,31.30
2007,07,10,16,54,31.30
2007,07,10,16,55,31.30
2007,07,10,16,56,31.30
2007,07,10,16,57,31.20
2007,07,10,16,58,31.10
2007,07,10,16,59,31.10
2007,07,10,17,00,31.10
2007,07,10,17,01,31.20
2007,07,10,17,02,31.20
2007,07,10,17,03,31.20
2007,07,10,17,04,31.30
2007,07,10,17,05,31.40
2007,07,10,17,06,31.40
2007,07,10,17,07,31.60
2007,07,10,17,08,31.60
2007,07,10,17,09,31.60
2007,07,10,17,10,31.60
2007,07,10,17,11,31.60
2007,07,10,17,12,31.60
2007,07,10,17,13,31.40
2007,07,10,17,14,31.30
2007,07,10,17,15,31.20
2007,07,10,17,16,31.20
2007,07,10,17,17,31.20
2007,07,10,17,18,31.10
2007,07,10,17,19,31.20